[Iaude] MPEC G167: 2024 GA4 [a=2.09,e=0.59,i=9.2,H=22.0]

mpec at cfa.harvard.edu mpec at cfa.harvard.edu
Thu Apr 11 23:47:42 EDT 2024


M.P.E.C. 2024-G167                               Issued 2024 April 12, 03:46 UT

     The Minor Planet Electronic Circulars contain information on unusual
         minor planets, routine data on comets and natural satellites,
         and occasional editorial announcements.  They are published
    on behalf of Division F of the International Astronomical Union by the
          Minor Planet Center, Smithsonian Astrophysical Observatory,
                          Cambridge, MA 02138, U.S.A.
			  
             Prepared using the Tamkin Foundation Computer Network

                              MPC at CFA.HARVARD.EDU
            URL https://www.minorplanetcenter.net/    ISSN 1523-6714

                                    2024 GA4                                    


Observations:
     K24G04A* C2024 04 09.39754410 57 55.171+40 10 05.03         22.23wXEG167F51
     K24G04A  C2024 04 09.40926510 57 53.142+40 10 15.94         21.72wXEG167F51
     K24G04A  C2024 04 09.42091910 57 51.139+40 10 27.13         21.46wXEG167F51
     K24G04A  C2024 04 09.43253210 57 49.159+40 10 38.12         22.12wXEG167F51
     K24G04A  C2024 04 09.54492410 57 30.311+40 12 20.45         21.85GVEG167F51
     K24G04A  C2024 04 09.54576710 57 30.177+40 12 21.30         21.52GVEG167F51
     K24G04A KC2024 04 10.38302210 55 15.618+40 25 44.36         21.87GVEG167V06
     K24G04A KC2024 04 10.38526610 55 15.240+40 25 46.42         21.79GVEG167V06
     K24G04A KC2024 04 10.38751110 55 14.862+40 25 48.29         21.80GVEG167V06
     K24G04A KC2024 04 10.38975610 55 14.491+40 25 50.23         22.24GVEG167V06
     K24G04A KC2024 04 11.15112010 53 13.571+40 37 41.74         21.60GVEG167V06
     K24G04A KC2024 04 11.15567210 53 12.793+40 37 46.09         21.76GVEG167V06
     K24G04A KC2024 04 11.16022510 53 12.001+40 37 50.30         21.66GVEG167V06
     K24G04A KC2024 04 11.16477710 53 11.209+40 37 54.55         21.67GVEG167V06
     K24G04A KC2024 04 12.13985510 50 33.241+40 52 19.70         21.69GVEG167V06
     K24G04A KC2024 04 12.14171410 50 32.932+40 52 21.40         21.84GVEG167V06
     K24G04A KC2024 04 12.14357310 50 32.593+40 52 23.02         21.69GVEG167V06
     K24G04A KC2024 04 12.14543310 50 32.280+40 52 24.67         22.05GVEG167V06

Observer details:
F51 Pan-STARRS 1, Haleakala.  Observers J. Herman, T. Lowe, P. Minguez, A.
    Schultz, I. Smith.  Measurers K. Chambers, T. de Boer, J. Fairlamb, H.
    Gao, M. Huber, C.-C. Lin, E. Magnier, Y. Ramanjooloo, R. Wainscoat, R.
    Weryk.  1.8-m Ritchey-Chretien + CCD.
V06 Catalina Sky Survey-Kuiper.  Observers G. J. Leonard, V. F. Carvajal, D.
    Rankin.  Measurers T. Beuden, V. F. Carvajal, D. Fay, J. B. Fazekas, D. C.
    Fuls, A. R. Gibbs, A. D. Grauer, H. Groeller, J. K. Hogan, R. A. Kowalski,
    S. M. Larson, G. J. Leonard, D. Rankin, R. L. Seaman, F. C. Shelly, K. W.
    Wierzchos.  1.55-m reflector + 1K CCD.

Orbital elements:
2024 GA4                                                 Earth MOID = 0.1105 AU
Epoch 2024 Mar. 31.0 TT = JDT 2460400.5                 MPC                     
M 334.82103              (2000.0)            P               Q                  
n   0.32510213     Peri.  184.70519     -0.02906909     +0.98695313             
a   2.0947049      Node    83.68874     -0.91181721     +0.03873253             
e   0.5892300      Incl.    9.16787     -0.40956606     -0.15627959             
P   3.03           H   22.01          G   0.15           U   9                  
Residuals in seconds of arc
240409 F51  0.1+  0.0     240410 V06  0.1+  0.0     240411 V06  0.0   0.0
240409 F51  0.1-  0.3-    240410 V06  0.0   0.1+    240411 V06  0.1-  0.0
240409 F51  0.2-  0.1-    240410 V06  0.0   0.0     240412 V06  0.0   0.0
240409 F51  0.1-  0.0     240410 V06  0.0   0.0     240412 V06  0.1+  0.0
240409 F51  0.1-  0.1-    240411 V06  0.0   0.0     240412 V06  0.1-  0.0
240409 F51  0.0   0.0     240411 V06  0.1+  0.1+    240412 V06  0.0   0.0

Ephemeris:
2024 GA4                 a,e,i = 2.09, 0.59, 9                   q = 0.8604
Date    TT    R. A. (2000) Decl.     Delta      r    Elong.  Phase     V
2024 03 13    11 56 45.6 +29 27 50   0.5292  1.4847   152.9    17.8    22.4
...
2024 03 28    11 29 01.2 +35 56 09   0.4340  1.3550   138.8    29.0    22.1
...
2024 04 05    11 09 30.9 +38 50 58   0.3961  1.2858   128.7    37.4    22.1
...
2024 04 11    10 53 37.6 +40 35 21   0.3715  1.2344   120.8    44.2    22.0
2024 04 12    10 50 55.4 +40 50 15   0.3676  1.2259   119.5    45.4    22.0
2024 04 13    10 48 12.7 +41 04 26   0.3638  1.2174   118.2    46.6    22.0
...
2024 04 19    10 31 50.7 +42 14 56   0.3412  1.1671   110.2    53.9    22.0
...
2024 04 27    10 09 47.5 +43 13 53   0.3111  1.1021    99.6    64.2    22.0
...
2024 05 12    09 22 21.4 +43 42 46   0.2488  0.9919    78.7    87.1    22.0

A. U. Tomatic                (C) Copyright 2024 MPC           M.P.E.C. 2024-G167





More information about the Iaude mailing list